Year,Month,Day,Hour,Minute,Value (Times are PST for temperature in C)
2015,07,10,00,00,19.20
2015,07,10,00,01,19.10
2015,07,10,00,02,19.10
2015,07,10,00,03,19.10
2015,07,10,00,04,19.00
2015,07,10,00,05,19.00
2015,07,10,00,06,19.00
2015,07,10,00,07,18.90
2015,07,10,00,08,18.90
2015,07,10,00,09,18.90
2015,07,10,00,10,18.90
2015,07,10,00,11,18.90
2015,07,10,00,12,18.90
2015,07,10,00,13,18.90
2015,07,10,00,14,18.80
2015,07,10,00,15,18.80
2015,07,10,00,16,18.80
2015,07,10,00,17,18.80
2015,07,10,00,18,18.80
2015,07,10,00,19,18.80
2015,07,10,00,20,18.80
2015,07,10,00,21,18.80
2015,07,10,00,22,18.80
2015,07,10,00,23,18.80
2015,07,10,00,24,18.80
2015,07,10,00,25,18.80
2015,07,10,00,26,18.80
2015,07,10,00,27,18.80
2015,07,10,00,28,18.70
2015,07,10,00,29,18.70
2015,07,10,00,30,18.70
2015,07,10,00,31,18.70
2015,07,10,00,32,18.70
2015,07,10,00,33,18.60
2015,07,10,00,34,18.60
2015,07,10,00,35,18.60
2015,07,10,00,36,18.60
2015,07,10,00,37,18.60
2015,07,10,00,38,18.60
2015,07,10,00,39,18.60
2015,07,10,00,40,18.60
2015,07,10,00,41,18.60
2015,07,10,00,42,18.60
2015,07,10,00,43,18.60
2015,07,10,00,44,18.50
2015,07,10,00,45,18.50
2015,07,10,00,46,18.50
2015,07,10,00,47,18.40
2015,07,10,00,48,18.40
2015,07,10,00,49,18.40
2015,07,10,00,50,18.30
2015,07,10,00,51,18.30
2015,07,10,00,52,18.30
2015,07,10,00,53,18.30
2015,07,10,00,54,18.20
2015,07,10,00,55,18.20
2015,07,10,00,56,18.20
2015,07,10,00,57,18.10
2015,07,10,00,58,18.10
2015,07,10,00,59,18.10
2015,07,10,01,00,18.10
2015,07,10,01,01,18.10
2015,07,10,01,02,18.10
2015,07,10,01,03,18.10
2015,07,10,01,04,18.10
2015,07,10,01,05,18.10
2015,07,10,01,06,18.10
2015,07,10,01,07,18.10
2015,07,10,01,08,18.00
2015,07,10,01,09,18.00
2015,07,10,01,10,18.00
2015,07,10,01,11,18.00
2015,07,10,01,12,18.00
2015,07,10,01,13,18.00
2015,07,10,01,14,18.00
2015,07,10,01,15,18.00
2015,07,10,01,16,18.00
2015,07,10,01,17,18.00
2015,07,10,01,18,18.00
2015,07,10,01,19,18.00
2015,07,10,01,20,18.00
2015,07,10,01,21,18.00
2015,07,10,01,22,18.00
2015,07,10,01,23,18.00
2015,07,10,01,24,17.90
2015,07,10,01,25,17.90
2015,07,10,01,26,17.90
2015,07,10,01,27,17.90
2015,07,10,01,28,17.90
2015,07,10,01,29,17.90
2015,07,10,01,30,17.80
2015,07,10,01,31,17.80
2015,07,10,01,32,17.80
2015,07,10,01,33,17.80
2015,07,10,01,34,17.80
2015,07,10,01,35,17.80
2015,07,10,01,36,17.80
2015,07,10,01,37,17.80
2015,07,10,01,38,17.70
2015,07,10,01,39,17.70
2015,07,10,01,40,17.60
2015,07,10,01,41,17.50
2015,07,10,01,42,17.50
2015,07,10,01,43,17.40
2015,07,10,01,44,17.40
2015,07,10,01,45,17.40
2015,07,10,01,46,17.30
2015,07,10,01,47,17.30
2015,07,10,01,48,17.30
2015,07,10,01,49,17.30
2015,07,10,01,50,17.20
2015,07,10,01,51,17.20
2015,07,10,01,52,17.20
2015,07,10,01,53,17.20
2015,07,10,01,54,17.30
2015,07,10,01,55,17.30
2015,07,10,01,56,17.30
2015,07,10,01,57,17.30
2015,07,10,01,58,17.30
2015,07,10,01,59,17.30
2015,07,10,02,00,17.30
2015,07,10,02,01,17.30
2015,07,10,02,02,17.30
2015,07,10,02,03,17.30
2015,07,10,02,04,17.30
2015,07,10,02,05,17.30
2015,07,10,02,06,17.30
2015,07,10,02,07,17.30
2015,07,10,02,08,17.30
2015,07,10,02,09,17.30
2015,07,10,02,10,17.20
2015,07,10,02,11,17.20
2015,07,10,02,12,17.20
2015,07,10,02,13,17.20
2015,07,10,02,14,17.10
2015,07,10,02,15,17.10
2015,07,10,02,16,17.10
2015,07,10,02,17,17.00
2015,07,10,02,18,17.00
2015,07,10,02,19,17.00
2015,07,10,02,20,17.00
2015,07,10,02,21,17.00
2015,07,10,02,22,17.00
2015,07,10,02,23,17.00
2015,07,10,02,24,17.00
2015,07,10,02,25,16.90
2015,07,10,02,26,16.90
2015,07,10,02,27,16.90
2015,07,10,02,28,16.90
2015,07,10,02,29,16.90
2015,07,10,02,30,16.90
2015,07,10,02,31,16.90
2015,07,10,02,32,16.90
2015,07,10,02,33,16.90
2015,07,10,02,34,16.90
2015,07,10,02,35,16.90
2015,07,10,02,36,16.90
2015,07,10,02,37,16.90
2015,07,10,02,38,16.90
2015,07,10,02,39,16.90
2015,07,10,02,40,16.90
2015,07,10,02,41,16.80
2015,07,10,02,42,16.80
2015,07,10,02,43,16.80
2015,07,10,02,44,16.80
2015,07,10,02,45,16.80
2015,07,10,02,46,16.80
2015,07,10,02,47,16.80
2015,07,10,02,48,16.80
2015,07,10,02,49,16.80
2015,07,10,02,50,16.80
2015,07,10,02,51,16.80
2015,07,10,02,52,16.80
2015,07,10,02,53,16.80
2015,07,10,02,54,16.80
2015,07,10,02,55,16.80
2015,07,10,02,56,16.70
2015,07,10,02,57,16.80
2015,07,10,02,58,16.80
2015,07,10,02,59,16.80
2015,07,10,03,00,16.70
2015,07,10,03,01,16.70
2015,07,10,03,02,16.70
2015,07,10,03,03,16.70
2015,07,10,04,02,16.60
2015,07,10,04,03,16.60
2015,07,10,04,04,16.60
2015,07,10,04,05,16.50
2015,07,10,04,06,16.50
2015,07,10,04,07,16.40
2015,07,10,04,08,16.40
2015,07,10,04,09,16.30
2015,07,10,04,10,16.30
2015,07,10,04,11,16.30
2015,07,10,04,12,16.20
2015,07,10,04,13,16.20
2015,07,10,04,14,16.20
2015,07,10,04,15,16.10
2015,07,10,04,16,16.10
2015,07,10,04,17,16.10
2015,07,10,04,18,16.10
2015,07,10,04,19,16.10
2015,07,10,04,20,16.10
2015,07,10,04,21,16.10
2015,07,10,04,22,16.10
2015,07,10,04,23,16.10
2015,07,10,04,24,16.10
2015,07,10,04,25,16.10
2015,07,10,04,26,16.10
2015,07,10,04,27,16.10
2015,07,10,04,28,16.10
2015,07,10,04,29,16.10
2015,07,10,04,30,16.10
2015,07,10,04,31,16.10
2015,07,10,04,32,16.10
2015,07,10,04,33,16.10
2015,07,10,04,34,16.10
2015,07,10,04,35,16.10
2015,07,10,04,36,16.10
2015,07,10,04,37,16.10
2015,07,10,04,38,16.10
2015,07,10,04,39,16.00
2015,07,10,04,40,16.00
2015,07,10,04,41,16.00
2015,07,10,04,42,15.90
2015,07,10,04,43,15.90
2015,07,10,04,44,15.90
2015,07,10,04,45,15.80
2015,07,10,04,46,15.80
2015,07,10,04,47,15.80
2015,07,10,04,48,15.70
2015,07,10,04,49,15.70
2015,07,10,04,50,15.70
2015,07,10,04,51,15.70
2015,07,10,04,52,15.60
2015,07,10,04,53,15.60
2015,07,10,04,54,15.60
2015,07,10,04,55,15.60
2015,07,10,04,56,15.50
2015,07,10,04,57,15.50
2015,07,10,04,58,15.40
2015,07,10,04,59,15.40
2015,07,10,05,00,15.40
2015,07,10,05,01,15.40
2015,07,10,05,02,15.40
2015,07,10,05,03,15.40
2015,07,10,05,04,15.40
2015,07,10,05,05,15.40
2015,07,10,05,06,15.40
2015,07,10,05,07,15.40
2015,07,10,05,08,15.40
2015,07,10,05,09,15.40
2015,07,10,05,10,15.40
2015,07,10,05,11,15.40
2015,07,10,05,12,15.40
2015,07,10,05,13,15.40
2015,07,10,05,14,15.40
2015,07,10,05,15,15.40
2015,07,10,05,16,15.40
2015,07,10,05,17,15.40
2015,07,10,05,18,15.40
2015,07,10,05,19,15.40
2015,07,10,05,20,15.40
2015,07,10,05,21,15.30
2015,07,10,05,22,15.30
2015,07,10,05,23,15.30
2015,07,10,05,24,15.30
2015,07,10,05,25,15.30
2015,07,10,05,26,15.30
2015,07,10,05,27,15.30
2015,07,10,05,28,15.30
2015,07,10,05,29,15.20
2015,07,10,05,30,15.20
2015,07,10,05,31,15.20
2015,07,10,05,32,15.20
2015,07,10,05,33,15.20
2015,07,10,05,34,15.10
2015,07,10,05,35,15.10
2015,07,10,05,36,15.10
2015,07,10,05,37,15.00
2015,07,10,05,38,15.00
2015,07,10,05,39,14.90
2015,07,10,05,40,14.90
2015,07,10,05,41,14.90
2015,07,10,05,42,14.90
2015,07,10,05,43,14.90
2015,07,10,05,44,14.80
2015,07,10,05,45,14.80
2015,07,10,05,46,14.80
2015,07,10,05,47,14.80
2015,07,10,05,48,14.70
2015,07,10,05,49,14.70
2015,07,10,05,50,14.70
2015,07,10,05,51,14.70
2015,07,10,05,52,14.70
2015,07,10,05,53,14.70
2015,07,10,05,54,14.70
2015,07,10,05,55,14.70
2015,07,10,05,56,14.70
2015,07,10,05,57,14.70
2015,07,10,05,58,14.70
2015,07,10,05,59,14.70
2015,07,10,06,00,14.70
2015,07,10,06,01,14.70
2015,07,10,06,02,14.70
2015,07,10,06,03,14.70
2015,07,10,06,04,14.70
2015,07,10,06,05,14.70
2015,07,10,06,06,14.70
2015,07,10,06,07,14.70
2015,07,10,06,08,14.60
2015,07,10,06,09,14.60
2015,07,10,06,10,14.70
2015,07,10,06,11,14.70
2015,07,10,06,12,14.70
2015,07,10,06,13,14.60
2015,07,10,06,14,14.70
2015,07,10,06,15,14.70
2015,07,10,06,16,14.70
2015,07,10,06,17,14.70
2015,07,10,06,18,14.70
2015,07,10,06,19,14.70
2015,07,10,06,20,14.70
2015,07,10,06,21,14.70
2015,07,10,06,22,14.70
2015,07,10,06,23,14.70
2015,07,10,06,24,14.70
2015,07,10,06,25,14.70
2015,07,10,06,26,14.70
2015,07,10,06,27,14.70
2015,07,10,06,28,14.70
2015,07,10,06,29,14.70
2015,07,10,06,30,14.70
2015,07,10,06,31,14.70
2015,07,10,06,32,14.70
2015,07,10,06,33,14.60
2015,07,10,06,34,14.60
2015,07,10,06,35,14.60
2015,07,10,06,36,14.60
2015,07,10,06,37,14.60
2015,07,10,06,38,14.60
2015,07,10,06,39,14.60
2015,07,10,06,40,14.60
2015,07,10,06,41,14.60
2015,07,10,06,42,14.60
2015,07,10,06,43,14.70
2015,07,10,06,44,14.70
2015,07,10,06,45,14.70
2015,07,10,06,46,14.70
2015,07,10,06,47,14.70
2015,07,10,06,48,14.70
2015,07,10,06,49,14.80
2015,07,10,06,50,14.80
2015,07,10,06,51,14.80
2015,07,10,06,52,14.80
2015,07,10,06,53,14.80
2015,07,10,06,54,14.90
2015,07,10,06,55,14.90
2015,07,10,06,56,14.90
2015,07,10,06,57,14.90
2015,07,10,06,58,15.00
2015,07,10,06,59,15.00
2015,07,10,07,00,15.00
2015,07,10,07,01,15.10
2015,07,10,07,02,15.10
2015,07,10,07,03,15.10
2015,07,10,07,04,15.10
2015,07,10,07,05,15.10
2015,07,10,07,06,15.20
2015,07,10,07,07,15.20
2015,07,10,07,08,15.20
2015,07,10,07,09,15.20
2015,07,10,07,10,15.20
2015,07,10,07,11,15.30
2015,07,10,07,12,15.30
2015,07,10,07,13,15.30
2015,07,10,07,14,15.30
2015,07,10,07,15,15.40
2015,07,10,07,16,15.40
2015,07,10,07,17,15.40
2015,07,10,07,18,15.50
2015,07,10,07,19,15.50
2015,07,10,07,20,15.60
2015,07,10,07,21,15.60
2015,07,10,07,22,15.70
2015,07,10,07,23,15.70
2015,07,10,07,24,15.80
2015,07,10,07,25,15.80
2015,07,10,07,26,15.90
2015,07,10,07,27,15.90
2015,07,10,07,28,16.00
2015,07,10,07,29,16.10
2015,07,10,07,30,16.20
2015,07,10,07,31,16.20
2015,07,10,07,32,16.30
2015,07,10,07,33,16.30
2015,07,10,07,34,16.40
2015,07,10,07,35,16.50
2015,07,10,07,36,16.50
2015,07,10,07,37,16.60
2015,07,10,07,38,16.60
2015,07,10,07,39,16.70
2015,07,10,07,40,16.70
2015,07,10,07,41,16.80
2015,07,10,07,42,16.90
2015,07,10,07,43,17.00
2015,07,10,07,44,17.00
2015,07,10,07,45,17.10
2015,07,10,07,46,17.20
2015,07,10,07,47,17.20
2015,07,10,07,48,17.30
2015,07,10,07,49,17.40
2015,07,10,07,50,17.40
2015,07,10,07,51,17.50
2015,07,10,07,52,17.60
2015,07,10,07,53,17.60
2015,07,10,07,54,17.60
2015,07,10,07,55,17.70
2015,07,10,07,56,17.80
2015,07,10,07,57,17.90
2015,07,10,07,58,17.90
2015,07,10,07,59,18.00
2015,07,10,08,00,18.00
2015,07,10,08,01,18.10
2015,07,10,08,02,18.10
2015,07,10,08,03,18.10
2015,07,10,08,04,18.20
2015,07,10,08,05,18.20
2015,07,10,08,06,18.30
2015,07,10,08,07,18.30
2015,07,10,08,08,18.30
2015,07,10,08,09,18.40
2015,07,10,08,10,18.40
2015,07,10,08,11,18.40
2015,07,10,08,12,18.40
2015,07,10,08,13,18.50
2015,07,10,08,14,18.60
2015,07,10,08,15,18.60
2015,07,10,08,16,18.60
2015,07,10,08,17,18.70
2015,07,10,08,18,18.70
2015,07,10,08,19,18.70
2015,07,10,08,20,18.80
2015,07,10,08,21,18.80
2015,07,10,08,22,18.80
2015,07,10,08,23,18.80
2015,07,10,08,24,18.90
2015,07,10,08,25,18.90
2015,07,10,08,26,18.90
2015,07,10,08,27,18.90
2015,07,10,08,28,18.90
2015,07,10,08,29,18.90
2015,07,10,08,30,18.80
2015,07,10,08,31,18.90
2015,07,10,08,32,18.90
2015,07,10,08,33,18.90
2015,07,10,08,34,18.90
2015,07,10,08,35,18.90
2015,07,10,08,36,18.90
2015,07,10,08,37,18.80
2015,07,10,08,38,18.80
2015,07,10,08,39,18.80
2015,07,10,08,40,18.80
2015,07,10,08,41,18.80
2015,07,10,08,42,18.80
2015,07,10,08,43,18.80
2015,07,10,08,44,18.90
2015,07,10,08,45,18.90
2015,07,10,08,46,18.90
2015,07,10,08,47,19.00
2015,07,10,08,48,19.00
2015,07,10,08,49,19.10
2015,07,10,08,50,19.10
2015,07,10,08,51,19.10
2015,07,10,08,52,19.20
2015,07,10,08,53,19.20
2015,07,10,08,54,19.20
2015,07,10,08,55,19.20
2015,07,10,08,56,19.30
2015,07,10,08,57,19.30
2015,07,10,08,58,19.30
2015,07,10,08,59,19.30
2015,07,10,09,00,19.30
2015,07,10,09,01,19.20
2015,07,10,09,02,19.20
2015,07,10,09,03,19.20
2015,07,10,09,04,19.30
2015,07,10,09,05,19.30
2015,07,10,09,06,19.30
2015,07,10,09,07,19.30
2015,07,10,09,08,19.30
2015,07,10,09,09,19.30
2015,07,10,09,10,19.40
2015,07,10,09,11,19.40
2015,07,10,09,12,19.40
2015,07,10,09,13,19.40
2015,07,10,09,14,19.40
2015,07,10,09,15,19.40
2015,07,10,09,16,19.40
2015,07,10,09,17,19.50
2015,07,10,09,18,19.50
2015,07,10,09,19,19.50
2015,07,10,09,20,19.50
2015,07,10,09,21,19.50
2015,07,10,09,22,19.50
2015,07,10,09,23,19.50
2015,07,10,09,24,19.50
2015,07,10,09,25,19.50
2015,07,10,09,26,19.50
2015,07,10,09,27,19.50
2015,07,10,09,28,19.50
2015,07,10,09,29,19.50
2015,07,10,09,30,19.50
2015,07,10,09,31,19.50
2015,07,10,09,32,19.50
2015,07,10,09,33,19.50
2015,07,10,09,34,19.60
2015,07,10,09,35,19.60
2015,07,10,09,36,19.60
2015,07,10,09,37,19.70
2015,07,10,09,38,19.70
2015,07,10,09,39,19.70
2015,07,10,09,40,19.70
2015,07,10,09,41,19.70
2015,07,10,09,42,19.70
2015,07,10,09,43,19.70
2015,07,10,09,44,19.70
2015,07,10,09,45,19.70
2015,07,10,09,46,19.70
2015,07,10,09,47,19.70
2015,07,10,09,48,19.70
2015,07,10,09,49,19.70
2015,07,10,09,50,19.80
2015,07,10,09,51,19.80
2015,07,10,09,52,19.80
2015,07,10,09,53,19.80
2015,07,10,09,54,19.80
2015,07,10,09,55,19.80
2015,07,10,09,56,19.80
2015,07,10,09,57,19.70
2015,07,10,09,58,19.80
2015,07,10,09,59,19.70
2015,07,10,10,00,19.80
2015,07,10,10,01,19.70
2015,07,10,10,02,19.80
2015,07,10,10,03,19.80
2015,07,10,10,04,19.80
2015,07,10,10,05,19.80
2015,07,10,10,06,19.80
2015,07,10,10,07,19.70
2015,07,10,10,08,19.70
2015,07,10,10,09,19.70
2015,07,10,10,10,19.70
2015,07,10,10,11,19.70
2015,07,10,10,12,19.70
2015,07,10,10,13,19.70
2015,07,10,10,14,19.80
2015,07,10,10,15,19.80
2015,07,10,10,16,19.80
2015,07,10,10,17,19.80
2015,07,10,10,18,19.90
2015,07,10,10,19,19.90
2015,07,10,10,20,19.90
2015,07,10,10,21,19.90
2015,07,10,10,22,19.90
2015,07,10,10,23,19.90
2015,07,10,10,24,20.00
2015,07,10,10,25,20.00
2015,07,10,10,26,20.00
2015,07,10,10,27,20.00
2015,07,10,10,28,19.90
2015,07,10,10,29,19.80
2015,07,10,10,30,19.70
2015,07,10,10,31,19.70
2015,07,10,10,32,19.60
2015,07,10,10,33,19.60
2015,07,10,10,34,19.70
2015,07,10,10,35,19.70
2015,07,10,10,36,19.70
2015,07,10,10,37,19.70
2015,07,10,10,38,19.70
2015,07,10,10,39,19.80
2015,07,10,10,40,19.80
2015,07,10,10,41,19.80
2015,07,10,10,42,19.90
2015,07,10,10,43,19.90
2015,07,10,10,44,19.90
2015,07,10,10,45,19.90
2015,07,10,10,46,19.90
2015,07,10,10,47,19.90
2015,07,10,10,48,20.00
2015,07,10,10,49,20.00
2015,07,10,10,50,20.00
2015,07,10,10,51,20.00
2015,07,10,10,52,20.00
2015,07,10,10,53,20.00
2015,07,10,10,54,20.10
2015,07,10,10,55,20.10
2015,07,10,10,56,20.10
2015,07,10,10,57,20.10
2015,07,10,10,58,20.20
2015,07,10,10,59,20.20
2015,07,10,11,00,20.30
2015,07,10,11,01,20.30
2015,07,10,11,02,20.40
2015,07,10,11,03,20.40
2015,07,10,11,04,20.50
2015,07,10,11,05,20.50
2015,07,10,11,06,20.60
2015,07,10,11,07,20.60
2015,07,10,11,08,20.60
2015,07,10,11,09,20.60
2015,07,10,11,10,20.60
2015,07,10,11,11,20.60
2015,07,10,11,12,20.60
2015,07,10,11,13,20.60
2015,07,10,11,14,20.60
2015,07,10,11,15,20.60
2015,07,10,11,16,20.60
2015,07,10,11,17,20.60
2015,07,10,11,18,20.70
2015,07,10,11,19,20.70
2015,07,10,11,20,20.70
2015,07,10,11,21,20.70
2015,07,10,11,22,20.70
2015,07,10,11,23,20.80
2015,07,10,11,24,20.80
2015,07,10,11,25,20.80
2015,07,10,11,26,20.90
2015,07,10,11,27,20.90
2015,07,10,11,28,20.90
2015,07,10,11,29,20.90
2015,07,10,11,30,20.90
2015,07,10,11,31,20.80
2015,07,10,11,32,20.80
2015,07,10,11,33,20.90
2015,07,10,11,34,20.90
2015,07,10,11,35,20.80
2015,07,10,11,36,20.70
2015,07,10,11,37,20.70
2015,07,10,11,38,20.60
2015,07,10,11,39,20.70
2015,07,10,11,40,20.70
2015,07,10,11,41,20.70
2015,07,10,11,42,20.70
2015,07,10,11,43,20.70
2015,07,10,11,44,20.70
2015,07,10,11,45,20.70
2015,07,10,11,46,20.70
2015,07,10,11,47,20.70
2015,07,10,11,48,20.70
2015,07,10,11,49,20.70
2015,07,10,11,50,20.70
2015,07,10,11,51,20.60
2015,07,10,11,52,20.70
2015,07,10,11,53,20.70
2015,07,10,11,54,20.70
2015,07,10,11,55,20.70
2015,07,10,11,56,20.80
2015,07,10,11,57,20.80
2015,07,10,11,58,20.90
2015,07,10,11,59,20.90
2015,07,10,12,00,20.90
2015,07,10,12,01,20.90
2015,07,10,12,02,20.90
2015,07,10,12,03,21.00
2015,07,10,12,04,21.10
2015,07,10,12,05,21.10
2015,07,10,12,06,21.10
2015,07,10,12,07,21.10
2015,07,10,12,08,21.10
2015,07,10,12,09,21.10
2015,07,10,12,10,21.10
2015,07,10,12,11,21.10
2015,07,10,12,12,21.10
2015,07,10,12,13,21.10
2015,07,10,12,14,21.10
2015,07,10,12,15,21.10
2015,07,10,12,16,21.10
2015,07,10,12,17,21.10
2015,07,10,12,18,21.20
2015,07,10,12,19,21.20
2015,07,10,12,20,21.10
2015,07,10,12,21,21.10
2015,07,10,12,22,21.00
2015,07,10,12,23,21.00
2015,07,10,12,24,21.00
2015,07,10,12,25,20.90
2015,07,10,12,26,20.80
2015,07,10,12,27,20.80
2015,07,10,12,28,20.70
2015,07,10,12,29,20.70
2015,07,10,12,30,20.70
2015,07,10,12,31,20.60
2015,07,10,12,32,20.60
2015,07,10,12,33,20.60
2015,07,10,12,34,20.70
2015,07,10,12,35,20.80
2015,07,10,12,36,20.90
2015,07,10,12,37,20.90
2015,07,10,12,38,20.90
2015,07,10,12,39,21.00
2015,07,10,12,40,21.00
2015,07,10,12,41,21.00
2015,07,10,12,42,21.10
2015,07,10,12,43,21.10
2015,07,10,12,44,21.10
2015,07,10,12,45,21.10
2015,07,10,12,46,21.10
2015,07,10,12,47,21.10
2015,07,10,12,48,21.10
2015,07,10,12,49,21.10
2015,07,10,12,50,21.10
2015,07,10,12,51,21.20
2015,07,10,12,52,21.20
2015,07,10,12,53,21.20
2015,07,10,12,54,21.20
2015,07,10,12,55,21.30
2015,07,10,12,56,21.30
2015,07,10,12,57,21.40
2015,07,10,12,58,21.40
2015,07,10,12,59,21.40
2015,07,10,13,00,21.50
2015,07,10,13,01,21.40
2015,07,10,13,02,21.40
2015,07,10,13,03,21.40
2015,07,10,13,04,21.40
2015,07,10,13,05,21.40
2015,07,10,13,06,21.40
2015,07,10,13,07,21.40
2015,07,10,13,08,21.40
2015,07,10,13,09,21.40
2015,07,10,13,10,21.40
2015,07,10,13,11,21.40
2015,07,10,13,12,21.50
2015,07,10,13,13,21.40
2015,07,10,13,14,21.40
2015,07,10,13,15,21.30
2015,07,10,13,16,21.20
2015,07,10,13,17,21.10
2015,07,10,13,18,21.10
2015,07,10,13,19,21.10
2015,07,10,13,20,21.10
2015,07,10,13,21,21.10
2015,07,10,13,22,21.00
2015,07,10,13,23,20.90
2015,07,10,13,24,20.80
2015,07,10,13,25,20.80
2015,07,10,13,26,20.60
2015,07,10,13,27,20.60
2015,07,10,13,28,20.60
2015,07,10,13,29,20.60
2015,07,10,13,30,20.60
2015,07,10,13,31,20.60
2015,07,10,13,32,20.60
2015,07,10,13,33,20.60
2015,07,10,13,34,20.60
2015,07,10,13,35,20.60
2015,07,10,13,36,20.70
2015,07,10,13,37,20.70
2015,07,10,13,38,20.70
2015,07,10,13,39,20.70
2015,07,10,13,40,20.70
2015,07,10,13,41,20.70
2015,07,10,13,42,20.70
2015,07,10,13,43,20.70
2015,07,10,13,44,20.70
2015,07,10,13,45,20.80
2015,07,10,13,46,20.80
2015,07,10,13,47,20.90
2015,07,10,13,48,20.90
2015,07,10,13,49,20.90
2015,07,10,13,50,21.00
2015,07,10,13,51,21.00
2015,07,10,13,52,21.10
2015,07,10,13,53,21.10
2015,07,10,13,54,21.10
2015,07,10,13,55,21.20
2015,07,10,13,56,21.20
2015,07,10,13,57,21.30
2015,07,10,13,58,21.30
2015,07,10,13,59,21.30
2015,07,10,14,00,21.30
2015,07,10,14,01,21.20
2015,07,10,14,02,21.20
2015,07,10,14,03,21.20
2015,07,10,14,04,21.20
2015,07,10,14,05,21.20
2015,07,10,14,06,21.30
2015,07,10,14,07,21.30
2015,07,10,14,08,21.30
2015,07,10,14,09,21.40
2015,07,10,14,10,21.40
2015,07,10,14,11,21.40
2015,07,10,14,12,21.30
2015,07,10,14,13,21.30
2015,07,10,14,14,21.20
2015,07,10,14,15,21.20
2015,07,10,14,16,21.10
2015,07,10,14,17,21.10
2015,07,10,14,18,21.10
2015,07,10,14,19,21.00
2015,07,10,14,20,21.00
2015,07,10,14,21,20.90
2015,07,10,14,22,20.90
2015,07,10,14,23,20.90
2015,07,10,14,24,21.00
2015,07,10,14,25,21.00
2015,07,10,14,26,21.10
2015,07,10,14,27,21.20
2015,07,10,14,28,21.30
2015,07,10,14,29,21.30
2015,07,10,14,30,21.10
2015,07,10,14,31,21.00
2015,07,10,14,32,20.90
2015,07,10,14,33,20.90
2015,07,10,14,34,20.90
2015,07,10,14,35,20.90
2015,07,10,14,36,20.90
2015,07,10,14,37,21.00
2015,07,10,14,38,21.00
2015,07,10,14,39,21.10
2015,07,10,14,40,21.10
2015,07,10,14,41,21.10
2015,07,10,14,42,21.10
2015,07,10,14,43,21.10
2015,07,10,14,44,21.10
2015,07,10,14,45,21.00
2015,07,10,14,46,21.00
2015,07,10,14,47,21.00
2015,07,10,14,48,21.00
2015,07,10,14,49,21.10
2015,07,10,14,50,21.10
2015,07,10,14,51,21.20
2015,07,10,14,52,21.20
2015,07,10,14,53,21.20
2015,07,10,14,54,21.20
2015,07,10,14,55,21.30
2015,07,10,14,56,21.30
2015,07,10,14,57,21.30
2015,07,10,14,58,21.30
2015,07,10,14,59,21.30
2015,07,10,15,00,21.30
2015,07,10,15,01,21.40
2015,07,10,15,02,21.40
2015,07,10,15,03,21.40
2015,07,10,15,04,21.40
2015,07,10,15,05,21.40
2015,07,10,15,06,21.40
2015,07,10,15,07,21.40
2015,07,10,15,08,21.40
2015,07,10,15,09,21.30
2015,07,10,15,10,21.20
2015,07,10,15,11,21.20
2015,07,10,15,12,21.20
2015,07,10,15,13,21.20
2015,07,10,15,14,21.30
2015,07,10,15,15,21.40
2015,07,10,15,16,21.50
2015,07,10,15,17,21.60
2015,07,10,15,18,21.70
2015,07,10,15,19,21.80
2015,07,10,15,20,21.80
2015,07,10,15,21,21.90
2015,07,10,15,22,21.90
2015,07,10,15,23,22.00
2015,07,10,15,24,22.00
2015,07,10,15,25,22.10
2015,07,10,15,26,22.10
2015,07,10,15,27,22.10
2015,07,10,15,28,22.00
2015,07,10,15,29,22.00
2015,07,10,15,30,21.90
2015,07,10,15,31,21.80
2015,07,10,15,32,21.80
2015,07,10,15,33,21.70
2015,07,10,15,34,21.70
2015,07,10,15,35,21.70
2015,07,10,15,36,21.70
2015,07,10,15,37,21.70
2015,07,10,15,38,21.70
2015,07,10,15,39,21.70
2015,07,10,15,40,21.70
2015,07,10,15,41,21.70
2015,07,10,15,42,21.80
2015,07,10,15,43,21.80
2015,07,10,15,44,21.90
2015,07,10,15,45,21.90
2015,07,10,15,46,22.00
2015,07,10,15,47,22.00
2015,07,10,15,48,22.10
2015,07,10,15,49,22.00
2015,07,10,15,50,21.90
2015,07,10,15,51,21.80
2015,07,10,15,52,21.80
2015,07,10,15,53,21.70
2015,07,10,15,54,21.70
2015,07,10,15,55,21.60
2015,07,10,15,56,21.50
2015,07,10,15,57,21.50
2015,07,10,15,58,21.50
2015,07,10,15,59,21.60
2015,07,10,16,00,21.60
2015,07,10,16,01,21.70
2015,07,10,16,02,21.80
2015,07,10,16,03,21.90
2015,07,10,16,04,21.90
2015,07,10,16,05,21.90
2015,07,10,16,06,21.90
2015,07,10,16,07,21.80
2015,07,10,16,08,21.80
2015,07,10,16,09,21.70
2015,07,10,16,10,21.60
2015,07,10,16,11,21.60
2015,07,10,16,12,21.70
2015,07,10,16,13,21.70
2015,07,10,16,14,21.70
2015,07,10,16,15,21.80
2015,07,10,16,16,21.80
2015,07,10,16,17,21.90
2015,07,10,16,18,21.90
2015,07,10,16,19,21.80
2015,07,10,16,20,21.80
2015,07,10,16,21,21.80
2015,07,10,16,22,21.70
2015,07,10,16,23,21.70
2015,07,10,16,24,21.80
2015,07,10,16,25,21.80
2015,07,10,16,26,21.80
2015,07,10,16,27,21.80
2015,07,10,16,28,21.70
2015,07,10,16,29,21.60
2015,07,10,16,30,21.60
2015,07,10,16,31,21.60
2015,07,10,16,32,21.60
2015,07,10,16,33,21.60
2015,07,10,16,34,21.60
2015,07,10,16,35,21.60
2015,07,10,16,36,21.60
2015,07,10,16,37,21.60
2015,07,10,16,38,21.50
2015,07,10,16,39,21.50
2015,07,10,16,40,21.40
2015,07,10,16,41,21.40
2015,07,10,16,42,21.40
2015,07,10,16,43,21.40
2015,07,10,16,44,21.30
2015,07,10,16,45,21.30
2015,07,10,16,46,21.20
2015,07,10,16,47,21.00
2015,07,10,16,48,20.90
2015,07,10,16,49,20.70
2015,07,10,16,50,20.70
2015,07,10,16,51,20.70
2015,07,10,16,52,20.70
2015,07,10,16,53,20.60
2015,07,10,16,54,20.60
2015,07,10,16,55,20.70
2015,07,10,16,56,20.70
2015,07,10,16,57,20.70
2015,07,10,16,58,20.80
2015,07,10,16,59,20.80
2015,07,10,17,00,20.80
2015,07,10,17,01,20.80
2015,07,10,17,02,20.80
2015,07,10,17,03,20.80
2015,07,10,17,04,20.80
2015,07,10,17,05,20.80
2015,07,10,17,06,20.80
2015,07,10,17,07,20.70
2015,07,10,17,08,20.60
2015,07,10,17,09,20.60
2015,07,10,17,10,20.40
2015,07,10,17,11,20.40
2015,07,10,17,12,20.30
2015,07,10,17,13,20.20
2015,07,10,17,14,20.20
2015,07,10,17,15,20.20
2015,07,10,17,16,20.20
2015,07,10,17,17,20.20
2015,07,10,17,18,20.20
2015,07,10,17,19,20.20
2015,07,10,17,20,20.20
2015,07,10,17,21,20.20
2015,07,10,17,22,20.20
2015,07,10,17,23,20.10
2015,07,10,17,24,20.20
2015,07,10,17,25,20.20
2015,07,10,17,26,20.20
2015,07,10,17,27,20.20
2015,07,10,17,28,20.20
2015,07,10,17,29,20.20
2015,07,10,17,30,20.20
2015,07,10,17,31,20.20
2015,07,10,17,32,20.10
2015,07,10,17,33,20.10
2015,07,10,17,34,20.10
2015,07,10,17,35,20.10
2015,07,10,17,36,20.10
2015,07,10,17,37,20.20
2015,07,10,17,38,20.20
2015,07,10,17,39,20.20
2015,07,10,17,40,20.30
2015,07,10,17,41,20.40
2015,07,10,17,42,20.40
2015,07,10,17,43,20.50
2015,07,10,17,44,20.50
2015,07,10,17,45,20.60
2015,07,10,17,46,20.60
2015,07,10,17,47,20.60
2015,07,10,17,48,20.60
2015,07,10,17,49,20.50
2015,07,10,17,50,20.50
2015,07,10,17,51,20.40
2015,07,10,17,52,20.40
2015,07,10,17,53,20.50
2015,07,10,17,54,20.50
2015,07,10,17,55,20.60
2015,07,10,17,56,20.60
2015,07,10,17,57,20.60
2015,07,10,17,58,20.60
2015,07,10,17,59,20.60
2015,07,10,18,00,20.60
2015,07,10,18,01,20.60
2015,07,10,18,02,20.60
2015,07,10,18,03,20.60
2015,07,10,18,04,20.60
2015,07,10,18,05,20.60
2015,07,10,18,06,20.50
2015,07,10,18,07,20.50
2015,07,10,18,08,20.40
2015,07,10,18,09,20.30
2015,07,10,18,10,20.30
2015,07,10,18,11,20.20
2015,07,10,18,12,20.20
2015,07,10,18,13,20.20
2015,07,10,18,14,20.20
2015,07,10,18,15,20.20
2015,07,10,18,16,20.20
2015,07,10,18,17,20.20